Location: Blue Sky Observatory
(43.1153°N, 70.9036°W)
Time: 01:49:01
(UTC-05:00)

Amateur Radio Satellites - All Passes

Search period start: 03 December 2016 01:19
Search period end: 04 December 2016 01:19
Location: Blue Sky Observatory, 43.1153°N, 70.9036°W

Satellite Date Start Highest point End Downlink Frequencies (MHz)
Time Altitude Azimuth
Cosmos 2499 03 Dec 01:21:25 01:29:48 63° 283° (WNW) 01:38:38 435.465 / 435.565
Gurwin Techsat 1B 03 Dec 01:25:36 01:30:45 48° 99° (E) 01:35:52 435.225
AO-85 03 Dec 01:37:08 01:40:58 23° 113° (ESE) 01:44:37 145.980
PHONESAT 2.4 03 Dec 01:41:35 01:43:33 19° 158° (SSE) 01:45:31 2401.200-2431.200
SWISSCUBE 03 Dec 01:43:33 01:48:17 63° 258° (WSW) 01:53:03 437.505
BEESAT 03 Dec 01:48:00 01:52:44 63° 258° (WSW) 01:57:29 436.000
MOZHAYETS 4 03 Dec 01:49:42 01:53:47 32° 69° (ENE) 01:57:52
Oscar 19 03 Dec 01:59:09 02:04:04 45° 290° (WNW) 02:08:59 437.125/150
AUBIESAT-1 03 Dec 02:08:26 02:11:33 21° 262° (W) 02:14:51 437.475
ITUPSAT 1 03 Dec 02:13:38 02:18:02 36° 262° (W) 02:22:29 437.325
M-CUBED/EXP-1 PRIME 03 Dec 02:18:45 02:20:53 14° 266° (W) 02:23:05 437.505
ITAMSAT 1 03 Dec 02:19:32 02:24:16 35° 97° (E) 02:28:57 435.822/435.867
O/OREOS (USA 219) 03 Dec 02:36:39 02:40:56 45° 253° (WSW) 02:45:11 437.305
KKS-1 03 Dec 02:45:51 02:50:12 55° 72° (ENE) 02:54:36 437.445
AO-7 03 Dec 02:58:37 03:06:39 47° 101° (E) 03:14:37 29.400- 29.500
STARS 03 Dec 03:02:09 03:06:15 38° 70° (ENE) 03:10:23 437.465
Gurwin Techsat 1B 03 Dec 03:06:12 03:10:23 24° 297° (WNW) 03:14:33 435.225
GONETS M04 03 Dec 03:12:04 03:17:24 17° 302° (WNW) 03:22:46
PHONESAT 2.4 03 Dec 03:15:57 03:18:30 43° 174° (S) 03:21:03 2401.200-2431.200
AO-85 03 Dec 03:16:26 03:21:10 48° 308° (NW) 03:25:35 145.980
CUBESAT XI-V 03 Dec 03:19:25 03:23:40 39° 70° (ENE) 03:27:57 437.345
Cosmos 2499 03 Dec 03:20:50 03:25:01 14° 306° (NW) 03:29:17 435.465 / 435.565
MOZHAYETS 4 03 Dec 03:27:04 03:30:56 26° 265° (W) 03:34:49
BRITE-PL 03 Dec 03:31:58 03:34:10 12° 88° (E) 03:36:23 437.365/2234.400
HORYU 2 03 Dec 03:53:09 03:54:16 11° 89° (E) 03:55:23 437.375
ITAMSAT 1 03 Dec 03:59:08 04:03:38 31° 294° (WNW) 04:08:07 435.822/435.867
SO-50 03 Dec 04:23:34 04:27:39 31° 46° (NE) 04:31:39 436.795
KKS-1 03 Dec 04:24:32 04:27:06 15° 269° (W) 04:29:41 437.445
STARS 03 Dec 04:39:22 04:42:43 21° 266° (W) 04:46:06 437.465
YUBILEINY 03 Dec 04:46:41 04:53:57 28° 65° (ENE) 05:01:11 435.215
PHONESAT 2.4 03 Dec 04:51:05 04:53:34 36° 191° (SSW) 04:56:03 2401.200-2431.200
AO-7 03 Dec 04:51:35 04:59:18 43° 300° (WNW) 05:07:00 29.400- 29.500
BEESAT 3 03 Dec 04:53:37 04:56:51 25° 114° (ESE) 05:00:07 437.485
CUBESAT XI-V 03 Dec 04:57:40 05:01:10 22° 267° (W) 05:04:43 437.345
LilacSat-2 03 Dec 04:58:04 05:00:06 14° 91° (E) 05:02:07 437.200
GOMX 1 03 Dec 05:01:59 05:07:02 38° 96° (E) 05:12:08 467.674
AO-85 03 Dec 05:02:16 05:02:36 10° 328° (NNW) 05:02:56 145.980
CUTE-I 03 Dec 05:07:48 05:11:52 22° 93° (E) 05:15:54 437.470
BRITE-PL 03 Dec 05:07:51 05:13:11 90° 280° (W) 05:18:48 437.365/2234.400
BEESAT 2 03 Dec 05:15:34 05:18:29 20° 112° (ESE) 05:21:26 435.950
Cosmos 2491 03 Dec 05:17:17 05:22:48 19° 77° (ENE) 05:28:17 435.465 / 435.565
HORYU 2 03 Dec 05:26:52 05:31:19 74° 286° (WNW) 05:35:43 437.375
DOVE 4 03 Dec 05:30:34 05:35:16 31° 94° (E) 05:39:51 437.250
STRAND 1 03 Dec 05:31:41 05:36:24 38° 68° (ENE) 05:41:08 437.568
RS-15 03 Dec 05:31:50 05:38:20 17° 95° (E) 05:44:55 29.354- 29.394
Cubesat XI-IV 03 Dec 05:32:02 05:36:56 35° 97° (E) 05:41:46 437.490
NOAA 15 03 Dec 05:41:22 05:46:28 48° 100° (E) 05:51:33 137.62
SO-50 03 Dec 06:04:02 06:08:06 33° 245° (WSW) 06:12:06 436.795
Cosmos 2504 03 Dec 06:09:35 06:17:56 43° 72° (ENE) 06:25:53 435.465 / 435.565
AIST 1 03 Dec 06:10:07 06:13:56 28° 74° (ENE) 06:17:44
NOAA 18 03 Dec 06:26:49 06:32:23 69° 103° (ESE) 06:37:52 137.9125
PHONESAT 2.4 03 Dec 06:27:12 06:28:26 12° 206° (SSW) 06:29:38 2401.200-2431.200
BEESAT 3 03 Dec 06:30:51 06:34:22 31° 312° (NW) 06:37:56 437.485
LilacSat-2 03 Dec 06:31:01 06:34:36 41° 288° (WNW) 06:38:09 437.200
GOMX 1 03 Dec 06:40:14 06:44:57 32° 293° (WNW) 06:49:45 467.674
YUBILEINY 03 Dec 06:42:47 06:51:32 70° 267° (W) 07:00:17 435.215
CUTE 1.7 + AOD 2 03 Dec 06:44:34 06:47:53 22° 94° (E) 06:51:12 437.475
CUTE-I 03 Dec 06:47:02 06:52:11 50° 290° (WNW) 06:57:18 437.470
AO-7 03 Dec 06:48:11 06:49:52 11° 322° (NW) 06:51:32 29.400- 29.500
BRITE-PL 03 Dec 06:48:19 06:50:58 14° 300° (WNW) 06:53:41 437.365/2234.400
BEESAT 2 03 Dec 06:52:18 06:56:01 39° 310° (NW) 06:59:47 435.950
HO-68 03 Dec 06:58:30 07:05:13 40° 98° (E) 07:11:52 435.675
CANX-2 03 Dec 07:01:22 07:05:20 39° 98° (E) 07:09:17 2200.000
DOVE 4 03 Dec 07:08:05 07:12:55 36° 292° (WNW) 07:17:40 437.250
Cosmos 2491 03 Dec 07:09:32 07:18:21 89° 92° (E) 07:27:10 435.465 / 435.565
UWE-3 03 Dec 07:10:51 07:11:59 11° 88° (E) 07:13:07 435.000/436.395/437.385
STRAND 1 03 Dec 07:11:17 07:15:39 27° 265° (W) 07:20:01 437.568
Cubesat XI-IV 03 Dec 07:12:13 07:16:55 32° 294° (WNW) 07:21:34 437.490
CINEMA 3 03 Dec 07:13:59 07:18:55 80° 102° (ESE) 07:23:36 145.822/145.860
NOAA 15 03 Dec 07:21:47 07:25:56 24° 297° (WNW) 07:30:05 137.62
AAUSAT CUBESAT 2 03 Dec 07:24:45 07:27:57 21° 94° (E) 07:31:09 437.432
SEEDS 03 Dec 07:33:53 07:37:59 53° 100° (E) 07:42:04 437.485
RS-15 03 Dec 07:36:44 07:48:21 72° 117° (ESE) 08:00:32 29.354- 29.394
PRISM 03 Dec 07:43:13 07:47:09 52° 73° (ENE) 07:51:09 437.425
TIGRISAT 03 Dec 07:46:49 07:49:20 14° 61° (ENE) 07:51:49 435.000
ANTELSAT 03 Dec 07:47:10 07:49:51 15° 62° (ENE) 07:52:33 437.575/2403.000
AIST 1 03 Dec 07:47:47 07:51:26 26° 271° (W) 07:55:05
COMPASS 1 03 Dec 07:50:51 07:54:55 55° 100° (E) 07:58:59 437.405
CUBEBUG 2 03 Dec 07:54:58 07:59:21 53° 99° (E) 08:03:34 437.445
ZACube-1 03 Dec 07:57:49 08:01:09 22° 93° (E) 08:04:25 437.345
Cosmos 2504 03 Dec 08:03:05 08:11:21 46° 273° (W) 08:19:12 435.465 / 435.565
FUNcube-1 03 Dec 08:07:21 08:10:54 25° 94° (E) 08:14:23 145.935
NOAA 18 03 Dec 08:08:43 08:12:28 19° 301° (WNW) 08:16:11 137.9125
CUTE 1.7 + AOD 2 03 Dec 08:20:01 08:23:46 32° 290° (WNW) 08:27:31 437.475
CANX-2 03 Dec 08:37:55 08:40:55 19° 294° (WNW) 08:43:55 2200.000
Oscar 11 03 Dec 08:41:52 08:46:08 60° 100° (E) 08:50:22 145.826/435.025
YUBILEINY 03 Dec 08:42:59 08:46:35 13° 287° (WNW) 08:50:12 435.215
UWE-3 03 Dec 08:44:37 08:48:58 68° 286° (WNW) 08:53:11 435.000/436.395/437.385
HO-68 03 Dec 08:46:15 08:52:56 43° 296° (WNW) 08:59:36 435.675
AIST 2 03 Dec 08:49:33 08:53:39 84° 307° (NW) 08:57:50 435.215
UNISAT 6 03 Dec 08:49:44 08:54:22 61° 73° (ENE) 08:58:59 437.425
DELFI C3 03 Dec 08:52:28 08:55:53 27° 96° (E) 08:59:18 145.870
CINEMA 3 03 Dec 08:52:59 08:55:18 13° 301° (WNW) 08:57:35 145.822/145.860
AAUSAT CUBESAT 2 03 Dec 08:59:47 09:03:28 32° 290° (WNW) 09:07:10 437.432
JAS-2 03 Dec 09:04:40 09:09:46 25° 64° (ENE) 09:14:26 435.910
Cosmos 2491 03 Dec 09:10:16 09:16:28 21° 299° (WNW) 09:22:41 435.465 / 435.565
SEEDS 03 Dec 09:10:54 09:13:15 15° 296° (WNW) 09:15:35 437.485
CUSAT 1 03 Dec 09:14:55 09:18:18 48° 99° (E) 09:21:06 437.405
POPSAT HIP 1 03 Dec 09:15:31 09:17:36 13° 62° (ENE) 09:19:42 437.405
TIGRISAT 03 Dec 09:20:45 09:25:27 70° 258° (WSW) 09:30:07 435.000
PRISM 03 Dec 09:20:52 09:22:46 13° 269° (W) 09:24:42 437.425
ANTELSAT 03 Dec 09:21:22 09:26:02 65° 258° (WSW) 09:30:42 437.575/2403.000
Cosmos 2499 03 Dec 09:22:19 09:24:54 11° 51° (NE) 09:27:28 435.465 / 435.565
GONETS M04 03 Dec 09:26:22 09:28:43 11° 52° (NE) 09:31:03
DANDE 03 Dec 09:27:40 09:31:33 23° 96° (E) 09:34:42 436.750
COMPASS 1 03 Dec 09:27:49 09:30:01 14° 297° (WNW) 09:32:13 437.405
CUBEBUG 2 03 Dec 09:32:46 09:35:30 16° 297° (WNW) 09:38:09 437.445
ZACube-1 03 Dec 09:33:40 09:37:31 33° 291° (WNW) 09:41:15 437.345
FUNcube-1 03 Dec 09:43:28 09:47:07 28° 292° (WNW) 09:50:41 145.935
RS-15 03 Dec 09:50:33 10:01:47 44° 323° (NW) 10:13:29 29.354- 29.394
HUMSAT D 03 Dec 09:54:24 09:58:30 74° 102° (ESE) 10:02:33 437.325/437.525
AO-85 03 Dec 10:07:19 10:10:34 23° 44° (NE) 10:13:43 145.980
NANOSAT C BR1 03 Dec 10:10:12 10:14:17 46° 72° (ENE) 10:18:23 145.865
BUGSAT 1 03 Dec 10:10:29 10:13:19 18° 64° (ENE) 10:16:10 437.445
QB50P2 03 Dec 10:12:41 10:16:53 56° 73° (ENE) 10:21:06 145.880/145.840
POLYITAN 1 03 Dec 10:13:20 10:17:31 54° 73° (ENE) 10:21:43 437.675
ESTCUBE 1 03 Dec 10:15:42 10:18:50 18° 92° (E) 10:21:58 437.505/2401.250
Oscar 11 03 Dec 10:19:32 10:21:46 14° 298° (WNW) 10:23:59 145.826/435.025
QB50P1 03 Dec 10:27:22 10:31:38 77° 74° (ENE) 10:35:56 145.935-145.965
DELFI C3 03 Dec 10:27:24 10:30:35 24° 292° (WNW) 10:33:47 145.870
UNISAT 6 03 Dec 10:28:50 10:31:27 15° 270° (W) 10:34:03 437.425
AIST 2 03 Dec 10:30:44 10:32:47 13° 323° (NW) 10:34:53 435.215
DUCHIFAT 1 03 Dec 10:33:56 10:38:11 78° 76° (ENE) 10:42:28 145.980
AISAT 03 Dec 10:36:54 10:39:02 13° 90° (E) 10:41:09 437.250
JAS-2 03 Dec 10:48:00 10:54:34 56° 259° (W) 11:00:24 435.910
POPSAT HIP 1 03 Dec 10:48:36 10:52:51 63° 259° (W) 10:57:08 437.405
DANDE 03 Dec 11:09:53 11:14:09 29° 283° (WNW) 11:17:33 436.750
CUBEBUG 1 03 Dec 11:09:59 11:14:12 41° 98° (E) 11:18:24 437.445
Gurwin Techsat 1B 03 Dec 11:11:34 11:13:46 13° 57° (ENE) 11:15:57 435.225
Cosmos 2499 03 Dec 11:11:54 11:20:27 55° 75° (ENE) 11:28:24 435.465 / 435.565
VELOX 1 03 Dec 11:12:36 11:16:32 29° 96° (E) 11:20:26 145.980
50 SAT 03 Dec 11:15:41 11:18:36 23° 96° (E) 11:21:30 437.505
GONETS M04 03 Dec 11:19:20 11:27:52 56° 76° (ENE) 11:36:24
HUMSAT D 03 Dec 11:32:38 11:33:30 11° 299° (WNW) 11:34:22 437.325/437.525
PCSat 03 Dec 11:33:00 11:38:15 54° 114° (ESE) 11:43:32 145.827
DX 1 03 Dec 11:36:43 11:40:32 28° 96° (E) 11:44:19 434.975-435.025
Oscar 19 03 Dec 11:38:03 11:42:44 38° 68° (ENE) 11:47:27 437.125/150
BUGSAT 1 03 Dec 11:44:17 11:48:19 44° 261° (W) 11:52:25 437.445
AO-85 03 Dec 11:47:25 11:51:04 36° 243° (WSW) 11:54:38 145.980
NANOSAT C BR1 03 Dec 11:47:32 11:50:14 16° 268° (W) 11:52:56 145.865
UKube-1 03 Dec 11:50:12 11:54:00 29° 96° (E) 11:57:47 .
QB50P2 03 Dec 11:50:54 11:53:01 13° 270° (W) 11:55:09 145.880/145.840
POLYITAN 1 03 Dec 11:51:20 11:53:37 14° 269° (W) 11:55:56 437.675
ESTCUBE 1 03 Dec 11:51:33 11:55:51 45° 289° (WNW) 12:00:08 437.505/2401.250
TISAT 1 03 Dec 12:08:40 12:10:35 13° 90° (E) 12:12:29 437.305
RS-15 03 Dec 12:08:55 12:18:43 26° 356° (N) 12:28:37 29.354- 29.394
SPROUT 03 Dec 12:09:16 12:13:35 82° 102° (ESE) 12:17:52 437.525
AO-7 03 Dec 12:10:18 12:15:16 18° 46° (NE) 12:20:15 29.400- 29.500
AISAT 03 Dec 12:11:27 12:15:54 62° 287° (WNW) 12:20:18 437.250
CUBEBUG 1 03 Dec 12:46:55 12:50:12 21° 295° (WNW) 12:53:28 437.445
Gurwin Techsat 1B 03 Dec 12:47:33 12:52:52 83° 75° (ENE) 12:58:14 435.225
50 SAT 03 Dec 12:49:02 12:51:49 22° 292° (WNW) 12:54:34 437.505
VELOX 1 03 Dec 12:49:06 12:52:54 28° 293° (WNW) 12:56:42 145.980
Cosmos 2499 03 Dec 13:05:39 13:13:08 34° 277° (W) 13:20:12 435.465 / 435.565
BEESAT 3 03 Dec 13:09:15 13:12:32 24° 45° (NE) 13:15:48 437.485
DX 1 03 Dec 13:12:54 13:16:39 28° 293° (WNW) 13:20:23 434.975-435.025
GONETS M04 03 Dec 13:16:48 13:24:15 33° 276° (W) 13:31:43
PCSat 03 Dec 13:17:24 13:21:57 27° 314° (NW) 13:26:31 145.827
Oscar 19 03 Dec 13:17:48 13:22:07 27° 265° (W) 13:26:29 437.125/150
UKube-1 03 Dec 13:26:17 13:29:56 27° 293° (WNW) 13:33:34 .
BEESAT 2 03 Dec 13:31:46 13:34:51 20° 43° (NE) 13:37:55 435.950
ITAMSAT 1 03 Dec 13:38:13 13:43:20 60° 72° (ENE) 13:48:29 435.822/435.867
TISAT 1 03 Dec 13:42:25 13:46:36 58° 287° (WNW) 13:50:43 437.305
SWISSCUBE 03 Dec 13:42:58 13:47:08 30° 96° (E) 13:51:17 437.505
AUBIESAT-1 03 Dec 13:45:02 13:48:51 25° 99° (E) 13:52:32 437.475
BEESAT 03 Dec 13:47:21 13:51:31 30° 96° (E) 13:55:39 436.000
SPROUT 03 Dec 13:47:49 13:48:51 11° 300° (WNW) 13:49:52 437.525
M-CUBED/EXP-1 PRIME 03 Dec 13:54:11 13:58:35 38° 102° (ESE) 14:02:51 437.505
AO-7 03 Dec 13:58:22 14:06:34 69° 67° (ENE) 14:14:50 29.400- 29.500
ITUPSAT 1 03 Dec 14:12:35 14:17:15 52° 100° (E) 14:21:52 437.325
RS-15 03 Dec 14:24:51 14:36:08 38° 31° (NNE) 14:47:12 29.354- 29.394
Gurwin Techsat 1B 03 Dec 14:31:13 14:33:28 13° 272° (W) 14:35:44 435.225
BRITE-PL 03 Dec 14:45:02 14:46:44 12° 59° (ENE) 14:48:28 437.365/2234.400
BEESAT 3 03 Dec 14:46:34 14:50:15 37° 243° (WSW) 14:53:55 437.485
HORYU 2 03 Dec 14:51:45 14:53:53 13° 60° (ENE) 14:56:00 437.375
BEESAT 2 03 Dec 15:08:58 15:12:52 47° 242° (WSW) 15:16:44 435.950
O/OREOS (USA 219) 03 Dec 15:11:57 15:14:59 18° 100° (E) 15:18:02 437.305
AUBIESAT-1 03 Dec 15:19:01 15:23:17 37° 296° (WNW) 15:27:26 437.475
ITAMSAT 1 03 Dec 15:19:43 15:23:11 18° 268° (W) 15:26:41 435.822/435.867
MOZHAYETS 4 03 Dec 15:20:02 15:24:35 66° 101° (ESE) 15:29:06
SWISSCUBE 03 Dec 15:20:44 15:24:52 31° 293° (WNW) 15:29:00 437.505
BEESAT 03 Dec 15:25:06 15:29:15 31° 293° (WNW) 15:33:24 436.000
NOAA 15 03 Dec 15:26:33 15:28:39 12° 56° (ENE) 15:30:44 137.62
M-CUBED/EXP-1 PRIME 03 Dec 15:28:56 15:32:50 26° 299° (WNW) 15:36:40 437.505
AIST 2 03 Dec 15:32:49 15:34:59 14° 37° (NE) 15:37:10 435.215
ITUPSAT 1 03 Dec 15:51:23 15:54:41 19° 297° (WNW) 15:58:00 437.325
AO-7 03 Dec 15:53:11 15:59:56 27° 266° (W) 16:06:46 29.400- 29.500
ISS 03 Dec 16:09:49 16:12:09 18° 133° (SE) 16:14:30 145.825
GOMX 1 03 Dec 16:11:17 16:15:27 38° 69° (ENE) 16:19:56 467.674
KKS-1 03 Dec 16:12:01 16:16:32 85° 286° (WNW) 16:21:00 437.445
NOAA 18 03 Dec 16:15:27 16:19:33 22° 61° (ENE) 16:23:41 137.9125
BRITE-PL 03 Dec 16:20:19 16:24:32 72° 259° (WSW) 16:29:03 437.365/2234.400
HORYU 2 03 Dec 16:25:22 16:29:51 71° 258° (WSW) 16:34:20 437.375
STARS 03 Dec 16:26:18 16:30:44 65° 102° (ESE) 16:35:06 437.465
CUTE-I 03 Dec 16:30:13 16:35:10 40° 68° (ENE) 16:40:09 437.470
DOVE 4 03 Dec 16:36:47 16:40:58 31° 67° (ENE) 16:45:22 437.250
RS-15 03 Dec 16:37:53 16:50:21 88° 238° (WSW) 17:02:23 29.354- 29.394
CINEMA 3 03 Dec 16:43:01 16:44:14 11° 58° (ENE) 16:45:28 145.822/145.860
O/OREOS (USA 219) 03 Dec 16:49:35 16:54:00 48° 297° (WNW) 16:58:25 437.305
CUBESAT XI-V 03 Dec 16:51:35 16:56:16 86° 103° (ESE) 17:00:57 437.345
Cubesat XI-IV 03 Dec 16:54:46 17:00:04 64° 73° (ENE) 17:05:25 437.490
MOZHAYETS 4 03 Dec 16:58:47 17:01:12 14° 298° (WNW) 17:03:36
NOAA 15 03 Dec 17:02:22 17:07:36 84° 73° (ENE) 17:12:52 137.62
AIST 2 03 Dec 17:09:53 17:14:08 84° 56° (NE) 17:18:22 435.215
LilacSat-2 03 Dec 17:13:09 17:17:00 78° 258° (WSW) 17:20:53 437.200
Cosmos 2491 03 Dec 17:18:55 17:27:17 48° 74° (ENE) 17:35:35 435.465 / 435.565
HO-68 03 Dec 17:28:26 17:34:41 34° 61° (ENE) 17:40:57 435.675
CUTE 1.7 + AOD 2 03 Dec 17:38:33 17:41:30 19° 66° (ENE) 17:44:28 437.475
STRAND 1 03 Dec 17:43:32 17:44:59 11° 88° (E) 17:46:26 437.568
ISS 03 Dec 17:45:06 17:48:22 60° 331° (NNW) 17:51:39 145.825
YUBILEINY 03 Dec 17:49:50 17:56:55 29° 82° (E) 18:04:02 435.215
GOMX 1 03 Dec 17:50:13 17:53:44 22° 269° (W) 17:57:26 467.674
NOAA 18 03 Dec 17:54:19 17:59:46 59° 259° (WSW) 18:05:16 137.9125
CANX-2 03 Dec 17:55:01 17:58:45 31° 69° (ENE) 18:02:30 2200.000
STARS 03 Dec 18:04:15 18:06:32 14° 299° (WNW) 18:08:49 437.465
UWE-3 03 Dec 18:08:24 18:10:25 13° 61° (ENE) 18:12:27 435.000/436.395/437.385
CUTE-I 03 Dec 18:10:42 18:15:18 28° 265° (W) 18:19:54 437.470
DOVE 4 03 Dec 18:14:27 18:18:36 30° 266° (W) 18:23:00 437.250
CINEMA 3 03 Dec 18:15:34 18:20:28 79° 75° (ENE) 18:25:30 145.822/145.860
AAUSAT CUBESAT 2 03 Dec 18:16:24 18:19:04 17° 65° (ENE) 18:21:45 437.432
SEEDS 03 Dec 18:26:18 18:30:12 40° 72° (ENE) 18:34:07 437.485
CUBESAT XI-V 03 Dec 18:31:23 18:32:57 12° 300° (WNW) 18:34:31 437.345
Cubesat XI-IV 03 Dec 18:37:06 18:40:35 17° 269° (W) 18:44:06 437.490
PCSat 03 Dec 18:38:16 18:40:26 12° 33° (NNE) 18:42:35 145.827
AIST 1 03 Dec 18:41:40 18:44:13 16° 85° (E) 18:46:47
COMPASS 1 03 Dec 18:42:16 18:46:08 40° 72° (ENE) 18:50:01 437.405
NOAA 15 03 Dec 18:45:56 18:48:01 12° 271° (W) 18:50:07 137.62
Cosmos 2504 03 Dec 18:49:02 18:56:11 34° 83° (E) 19:03:41 435.465 / 435.565
RS-15 03 Dec 18:52:08 19:01:05 25° 261° (W) 19:09:53 29.354- 29.394
CUBEBUG 2 03 Dec 18:53:07 18:57:43 51° 72° (ENE) 19:02:19 437.445
ZACube-1 03 Dec 18:54:19 18:57:49 22° 66° (ENE) 19:01:17 437.345
FUNcube-1 03 Dec 19:03:27 19:07:09 25° 67° (ENE) 19:10:50 145.935
CUTE 1.7 + AOD 2 03 Dec 19:13:05 19:17:03 40° 262° (W) 19:21:02 437.475
HO-68 03 Dec 19:15:12 19:22:07 52° 260° (W) 19:29:07 435.675
Cosmos 2491 03 Dec 19:16:06 19:23:56 39° 274° (W) 19:31:46 435.465 / 435.565
STRAND 1 03 Dec 19:19:42 19:24:50 87° 286° (WNW) 19:29:56 437.568
ISS 03 Dec 19:22:46 19:25:22 21° 350° (N) 19:27:57 145.825
CANX-2 03 Dec 19:31:17 19:34:38 23° 266° (W) 19:38:00 2200.000
Oscar 11 03 Dec 19:37:13 19:41:24 51° 73° (ENE) 19:45:36 145.826/435.025
DELFI C3 03 Dec 19:39:34 19:42:20 19° 66° (ENE) 19:45:06 145.870
UWE-3 03 Dec 19:41:34 19:46:14 79° 257° (WSW) 19:50:54 435.000/436.395/437.385
CUSAT 1 03 Dec 19:43:55 19:46:59 31° 78° (ENE) 19:50:48 437.405
YUBILEINY 03 Dec 19:44:28 19:53:03 63° 282° (WNW) 20:01:45 435.215
AAUSAT CUBESAT 2 03 Dec 19:50:19 19:54:13 43° 262° (W) 19:58:09 437.432
CINEMA 3 03 Dec 19:56:07 19:58:10 12° 273° (W) 20:00:16 145.822/145.860
SEEDS 03 Dec 20:03:16 20:06:04 17° 268° (W) 20:08:53 437.485
AIST 1 03 Dec 20:17:16 20:21:23 45° 282° (WNW) 20:25:34
SO-50 03 Dec 20:18:07 20:22:49 61° 120° (ESE) 20:27:28 436.795
COMPASS 1 03 Dec 20:19:08 20:21:52 17° 268° (W) 20:24:36 437.405
PCSat 03 Dec 20:19:47 20:25:07 53° 55° (NE) 20:30:24 145.827
ZACube-1 03 Dec 20:29:34 20:33:51 39° 262° (W) 20:38:07 437.345
CUBEBUG 2 03 Dec 20:31:22 20:34:36 18° 269° (W) 20:37:50 437.445
FUNcube-1 03 Dec 20:39:05 20:43:14 34° 264° (W) 20:47:21 145.935
Cosmos 2504 03 Dec 20:40:59 20:49:05 56° 284° (WNW) 20:57:44 435.465 / 435.565
UNISAT 6 03 Dec 20:43:01 20:44:24 11° 88° (E) 20:45:45 437.425
HUMSAT D 03 Dec 20:46:02 20:50:10 56° 74° (ENE) 20:54:17 437.325/437.525
PRISM 03 Dec 20:58:30 21:02:40 77° 104° (ESE) 21:06:50 437.425
ISS 03 Dec 21:00:06 21:02:41 21° 10° (N) 21:05:17 145.825
STRAND 1 03 Dec 21:01:10 21:03:14 12° 303° (WNW) 21:05:17 437.568
TIGRISAT 03 Dec 21:12:10 21:15:38 22° 93° (E) 21:19:01 435.000
ANTELSAT 03 Dec 21:12:48 21:16:23 24° 94° (E) 21:19:54 437.575/2403.000
DELFI C3 03 Dec 21:13:19 21:16:55 34° 263° (W) 21:20:32 145.870
Oscar 11 03 Dec 21:15:21 21:17:50 15° 269° (W) 21:20:19 145.826/435.025
ESTCUBE 1 03 Dec 21:16:20 21:19:32 20° 65° (ENE) 21:22:46 437.505/2401.250
CUSAT 1 03 Dec 21:26:36 21:28:48 15° 265° (W) 21:31:16 437.405
AISAT 03 Dec 21:35:23 21:37:45 14° 61° (ENE) 21:40:08 437.250
DANDE 03 Dec 21:45:20 21:47:44 28° 263° (W) 21:50:28 436.750
YUBILEINY 03 Dec 21:48:12 21:51:58 13° 306° (NW) 21:55:45 435.215
50 SAT 03 Dec 21:53:21 21:54:52 12° 64° (ENE) 21:56:22 437.505
JAS-2 03 Dec 21:57:38 22:00:25 14° 90° (E) 22:03:13 435.910
SO-50 03 Dec 21:59:57 22:03:39 22° 319° (NW) 22:07:20 436.795
PCSat 03 Dec 22:03:56 22:08:08 23° 253° (WSW) 22:12:19 145.827
CUBEBUG 1 03 Dec 22:06:42 22:10:43 38° 70° (ENE) 22:14:47 437.445
VELOX 1 03 Dec 22:10:45 22:14:34 30° 68° (ENE) 22:18:26 145.980
QB50P1 03 Dec 22:13:20 22:14:45 11° 89° (E) 22:16:11 145.935-145.965
UNISAT 6 03 Dec 22:17:12 22:21:38 69° 286° (WNW) 22:25:56 437.425
DUCHIFAT 1 03 Dec 22:19:19 22:20:39 11° 89° (E) 22:21:59 145.980
HUMSAT D 03 Dec 22:24:08 22:26:07 13° 270° (W) 22:28:05 437.325/437.525
DX 1 03 Dec 22:33:08 22:36:51 28° 67° (ENE) 22:40:35 434.975-435.025
POPSAT HIP 1 03 Dec 22:33:12 22:36:15 19° 93° (E) 22:39:17 437.405
GONETS M04 03 Dec 22:33:16 22:34:53 11° 71° (ENE) 22:36:29
PRISM 03 Dec 22:36:17 22:37:21 11° 300° (WNW) 22:38:25 437.425
ISS 03 Dec 22:36:24 22:39:42 59° 29° (NNE) 22:42:58 145.825
Cosmos 2504 03 Dec 22:41:54 22:44:51 12° 308° (NW) 22:47:51 435.465 / 435.565
UKube-1 03 Dec 22:45:34 22:49:16 28° 68° (ENE) 22:52:59 .
TIGRISAT 03 Dec 22:48:22 22:52:25 35° 291° (WNW) 22:56:21 435.000
ANTELSAT 03 Dec 22:49:11 22:53:09 32° 291° (WNW) 22:57:01 437.575/2403.000
ESTCUBE 1 03 Dec 22:51:47 22:56:02 43° 261° (W) 23:00:20 437.505/2401.250
TISAT 1 03 Dec 23:01:50 23:03:31 12° 61° (ENE) 23:05:13 437.305
SPROUT 03 Dec 23:03:10 23:07:26 68° 74° (ENE) 23:11:44 437.525
AISAT 03 Dec 23:09:19 23:13:41 63° 259° (W) 23:18:07 437.250
50 SAT 03 Dec 23:24:25 23:27:47 43° 261° (W) 23:31:09 437.505
BUGSAT 1 03 Dec 23:25:26 23:28:51 24° 94° (E) 23:32:12 437.445
NANOSAT C BR1 03 Dec 23:28:54 23:33:10 75° 102° (ESE) 23:37:22 145.865
QB50P2 03 Dec 23:32:08 23:36:25 87° 288° (WNW) 23:40:39 145.880/145.840
POLYITAN 1 03 Dec 23:32:46 23:37:02 89° 109° (ESE) 23:41:15 437.675
JAS-2 03 Dec 23:40:54 23:46:03 67° 287° (WNW) 23:51:20 435.910
CUBEBUG 1 03 Dec 23:43:53 23:47:07 20° 267° (W) 23:50:24 437.445
QB50P1 03 Dec 23:46:44 23:50:58 64° 286° (WNW) 23:55:08 145.935-145.965
VELOX 1 03 Dec 23:47:16 23:51:00 27° 265° (W) 23:54:46 145.980
Cosmos 2499 03 Dec 23:48:34 23:56:24 43° 86° (E) 00:04:34 435.465 / 435.565
Oscar 19 03 Dec 23:50:32 23:52:24 12° 88° (E) 23:54:16 437.125/150
DUCHIFAT 1 03 Dec 23:52:34 23:56:46 65° 286° (WNW) 00:00:55 145.980
POPSAT HIP 1 04 Dec 00:08:13 00:12:10 38° 290° (WNW) 00:16:05 437.405
DX 1 04 Dec 00:09:15 00:12:58 28° 264° (W) 00:16:44 434.975-435.025
ISS 04 Dec 00:13:31 00:15:55 19° 226° (SW) 00:18:19 145.825
GONETS M04 04 Dec 00:21:13 00:29:45 62° 92° (E) 00:38:16
UKube-1 04 Dec 00:21:35 00:25:15 27° 264° (W) 00:28:56 .
AUBIESAT-1 04 Dec 00:31:09 00:34:50 33° 63° (ENE) 00:38:46 437.475
TISAT 1 04 Dec 00:34:21 00:38:35 70° 259° (WSW) 00:42:51 437.305
M-CUBED/EXP-1 PRIME 04 Dec 00:40:52 00:44:46 50° 67° (ENE) 00:49:01 437.505
SPROUT 04 Dec 00:42:32 00:43:49 11° 271° (W) 00:45:05 437.525
SWISSCUBE 04 Dec 00:50:08 00:54:32 39° 69° (ENE) 00:58:59 437.505
BEESAT 04 Dec 00:54:28 00:58:52 39° 69° (ENE) 01:03:18 436.000
BUGSAT 1 04 Dec 01:00:31 01:04:13 30° 291° (WNW) 01:07:52 437.445
Gurwin Techsat 1B 04 Dec 01:03:09 01:07:50 30° 96° (E) 01:12:28 435.225
NANOSAT C BR1 04 Dec 01:06:56 01:08:15 11° 300° (WNW) 01:09:35 145.865
